owner,sensor,date,latitude,longitude,air_temperature,qcFlag 
TCOON,ioos:station:TCOON:146:1,2016-02-01T19:30:00Z,28.1324,-97.0345,20.2,1111122 
TCOON,ioos:station:TCOON:146:1,2016-02-01T20:30:00Z,28.1324,-97.0345,20.4,1111122 
TCOON,ioos:station:TCOON:146:1,2016-02-01T22:30:00Z,28.1324,-97.0345,20.1,1111122 
TCOON,ioos:station:TCOON:146:1,2016-02-01T23:30:00Z,28.1324,-97.0345,20.1,1111122 
TCOON,ioos:station:TCOON:146:1,2016-02-02T00:30:00Z,28.1324,-97.0345,19.6,1111122 
TCOON,ioos:station:TCOON:146:1,2016-02-02T01:30:00Z,28.1324,-97.0345,19.9,1111122 
TCOON,ioos:station:TCOON:146:1,2016-02-02T02:30:00Z,28.1324,-97.0345,19.8,1111122 
TCOON,ioos:station:TCOON:146:1,2016-02-02T03:30:00Z,28.1324,-97.0345,19.5,1111122 
TCOON,ioos:station:TCOON:146:1,2016-02-02T04:30:00Z,28.1324,-97.0345,19.9,1111122 
TCOON,ioos:station:TCOON:146:1,2016-02-02T05:30:00Z,28.1324,-97.0345,19.6,1111122 
TCOON,ioos:station:TCOON:146:1,2016-02-02T06:30:00Z,28.1324,-97.0345,19.7,1111122 
TCOON,ioos:station:TCOON:146:1,2016-02-02T07:30:00Z,28.1324,-97.0345,19.9,1111122 
TCOON,ioos:station:TCOON:146:1,2016-02-02T08:30:00Z,28.1324,-97.0345,19.7,1111122 
TCOON,ioos:station:TCOON:146:1,2016-02-02T10:30:00Z,28.1324,-97.0345,18.9,1111122 
TCOON,ioos:station:TCOON:146:1,2016-02-02T11:30:00Z,28.1324,-97.0345,18.8,1111122 
TCOON,ioos:station:TCOON:146:1,2016-02-02T12:30:00Z,28.1324,-97.0345,18.1,1111122 
TCOON,ioos:station:TCOON:146:1,2016-02-02T13:30:00Z,28.1324,-97.0345,18.1,1111122 
TCOON,ioos:station:TCOON:146:1,2016-02-02T14:30:00Z,28.1324,-97.0345,18.1,1111122 
TCOON,ioos:station:TCOON:146:1,2016-02-02T15:30:00Z,28.1324,-97.0345,18.1,1111122 
TCOON,ioos:station:TCOON:146:1,2016-02-02T19:30:00Z,28.1324,-97.0345,20.9,1111122 
TCOON,ioos:station:TCOON:146:1,2016-02-02T20:30:00Z,28.1324,-97.0345,21.7,1111122 
TCOON,ioos:station:TCOON:146:1,2016-02-03T00:30:00Z,28.1324,-97.0345,20.6,1111122 
TCOON,ioos:station:TCOON:146:1,2016-02-03T01:30:00Z,28.1324,-97.0345,19.8,1111122 
TCOON,ioos:station:TCOON:146:1,2016-02-03T02:30:00Z,28.1324,-97.0345,18.8,1111122 
TCOON,ioos:station:TCOON:146:1,2016-02-03T03:30:00Z,28.1324,-97.0345,17.0,1111122 
TCOON,ioos:station:TCOON:146:1,2016-02-03T04:30:00Z,28.1324,-97.0345,16.7,1111122 
TCOON,ioos:station:TCOON:146:1,2016-02-03T05:30:00Z,28.1324,-97.0345,16.9,1111122 
TCOON,ioos:station:TCOON:146:1,2016-02-03T06:30:00Z,28.1324,-97.0345,16.1,1111122 
TCOON,ioos:station:TCOON:146:1,2016-02-03T07:30:00Z,28.1324,-97.0345,15.5,1111122 
TCOON,ioos:station:TCOON:146:1,2016-02-03T08:30:00Z,28.1324,-97.0345,15.6,1111122 
TCOON,ioos:station:TCOON:146:1,2016-02-03T10:30:00Z,28.1324,-97.0345,14.4,1111122 
TCOON,ioos:station:TCOON:146:1,2016-02-03T11:30:00Z,28.1324,-97.0345,13.3,1111122 
TCOON,ioos:station:TCOON:146:1,2016-02-03T12:30:00Z,28.1324,-97.0345,12.4,1111122 
TCOON,ioos:station:TCOON:146:1,2016-02-03T13:30:00Z,28.1324,-97.0345,11.1,1111122 
TCOON,ioos:station:TCOON:146:1,2016-02-03T14:30:00Z,28.1324,-97.0345,10.6,1111122 
TCOON,ioos:station:TCOON:146:1,2016-02-03T15:30:00Z,28.1324,-97.0345,11.5,1111122 
TCOON,ioos:station:TCOON:146:1,2016-02-03T16:30:00Z,28.1324,-97.0345,12.4,1111122 
TCOON,ioos:station:TCOON:146:1,2016-02-03T17:30:00Z,28.1324,-97.0345,13.4,1111122 
TCOON,ioos:station:TCOON:146:1,2016-02-03T18:30:00Z,28.1324,-97.0345,14.0,1111122 
TCOON,ioos:station:TCOON:146:1,2016-02-07T15:30:00Z,28.1324,-97.0345,11.2,1111122 
TCOON,ioos:station:TCOON:146:1,2016-02-07T23:30:00Z,28.1324,-97.0345,15.9,1111122 
TCOON,ioos:station:TCOON:146:1,2016-02-08T01:30:00Z,28.1324,-97.0345,15.4,1111122 
TCOON,ioos:station:TCOON:146:1,2016-02-08T02:30:00Z,28.1324,-97.0345,15.5,1111122 
TCOON,ioos:station:TCOON:146:1,2016-02-08T03:30:00Z,28.1324,-97.0345,14.5,1111122 
TCOON,ioos:station:TCOON:146:1,2016-02-08T04:30:00Z,28.1324,-97.0345,15.0,1111122 
TCOON,ioos:station:TCOON:146:1,2016-02-08T06:30:00Z,28.1324,-97.0345,13.9,1111122 
TCOON,ioos:station:TCOON:146:1,2016-02-08T08:30:00Z,28.1324,-97.0345,14.0,1111122 
TCOON,ioos:station:TCOON:146:1,2016-02-08T12:30:00Z,28.1324,-97.0345,9.6,1111122 
TCOON,ioos:station:TCOON:146:1,2016-02-08T16:30:00Z,28.1324,-97.0345,13.5,1111122 
TCOON,ioos:station:TCOON:146:1,2016-02-08T17:30:00Z,28.1324,-97.0345,15.3,1111122 
TCOON,ioos:station:TCOON:146:1,2016-02-08T18:30:00Z,28.1324,-97.0345,16.2,1111122 
TCOON,ioos:station:TCOON:146:1,2016-02-08T19:30:00Z,28.1324,-97.0345,17.2,1111122 
TCOON,ioos:station:TCOON:146:1,2016-02-08T20:30:00Z,28.1324,-97.0345,18.2,1111122 
TCOON,ioos:station:TCOON:146:1,2016-02-08T21:30:00Z,28.1324,-97.0345,18.4,1111122 
TCOON,ioos:station:TCOON:146:1,2016-02-08T22:30:00Z,28.1324,-97.0345,18.8,1111122 
TCOON,ioos:station:TCOON:146:1,2016-02-08T23:30:00Z,28.1324,-97.0345,18.1,1111122 
TCOON,ioos:station:TCOON:146:1,2016-02-09T00:30:00Z,28.1324,-97.0345,16.8,1111122 
TCOON,ioos:station:TCOON:146:1,2016-02-09T01:30:00Z,28.1324,-97.0345,16.1,1111122 
TCOON,ioos:station:TCOON:146:1,2016-02-09T02:30:00Z,28.1324,-97.0345,15.4,1111122 
TCOON,ioos:station:TCOON:146:1,2016-02-09T03:30:00Z,28.1324,-97.0345,15.6,1111122 
TCOON,ioos:station:TCOON:146:1,2016-02-09T04:30:00Z,28.1324,-97.0345,14.8,1111122 
TCOON,ioos:station:TCOON:146:1,2016-02-09T05:30:00Z,28.1324,-97.0345,13.7,1111122 
TCOON,ioos:station:TCOON:146:1,2016-02-09T06:30:00Z,28.1324,-97.0345,14.2,1111122 
TCOON,ioos:station:TCOON:146:1,2016-02-09T07:30:00Z,28.1324,-97.0345,13.0,1111122 
TCOON,ioos:station:TCOON:146:1,2016-02-09T08:30:00Z,28.1324,-97.0345,12.2,1111122 
TCOON,ioos:station:TCOON:146:1,2016-02-09T09:30:00Z,28.1324,-97.0345,11.9,1111122 
TCOON,ioos:station:TCOON:146:1,2016-02-09T10:30:00Z,28.1324,-97.0345,11.4,1111122 
TCOON,ioos:station:TCOON:146:1,2016-02-09T11:30:00Z,28.1324,-97.0345,10.9,1111122 
TCOON,ioos:station:TCOON:146:1,2016-02-09T12:30:00Z,28.1324,-97.0345,11.4,1111122 
TCOON,ioos:station:TCOON:146:1,2016-02-09T13:30:00Z,28.1324,-97.0345,10.8,1111122 
TCOON,ioos:station:TCOON:146:1,2016-02-09T14:30:00Z,28.1324,-97.0345,9.8,1111122 
TCOON,ioos:station:TCOON:146:1,2016-02-09T15:30:00Z,28.1324,-97.0345,11.4,1111122 
TCOON,ioos:station:TCOON:146:1,2016-02-09T16:30:00Z,28.1324,-97.0345,14.4,1111122 
TCOON,ioos:station:TCOON:146:1,2016-02-09T17:30:00Z,28.1324,-97.0345,16.3,1111122 
TCOON,ioos:station:TCOON:146:1,2016-02-09T18:30:00Z,28.1324,-97.0345,16.4,1111122 
TCOON,ioos:station:TCOON:146:1,2016-02-09T19:30:00Z,28.1324,-97.0345,17.5,1111122 
TCOON,ioos:station:TCOON:146:1,2016-02-09T20:30:00Z,28.1324,-97.0345,18.7,1111122 
TCOON,ioos:station:TCOON:146:1,2016-02-09T21:30:00Z,28.1324,-97.0345,19.7,1111122 
TCOON,ioos:station:TCOON:146:1,2016-02-09T22:30:00Z,28.1324,-97.0345,18.4,1111122 
TCOON,ioos:station:TCOON:146:1,2016-02-09T23:30:00Z,28.1324,-97.0345,16.7,1111122 
TCOON,ioos:station:TCOON:146:1,2016-02-10T00:30:00Z,28.1324,-97.0345,16.3,1111122 
TCOON,ioos:station:TCOON:146:1,2016-02-10T01:30:00Z,28.1324,-97.0345,15.2,1111122 
TCOON,ioos:station:TCOON:146:1,2016-02-10T02:30:00Z,28.1324,-97.0345,14.6,1111122 
TCOON,ioos:station:TCOON:146:1,2016-02-10T03:30:00Z,28.1324,-97.0345,14.8,1111122 
TCOON,ioos:station:TCOON:146:1,2016-02-10T04:30:00Z,28.1324,-97.0345,14.8,1111122 
TCOON,ioos:station:TCOON:146:1,2016-02-10T05:30:00Z,28.1324,-97.0345,13.8,1111122 
TCOON,ioos:station:TCOON:146:1,2016-02-10T06:30:00Z,28.1324,-97.0345,13.3,1111122 
TCOON,ioos:station:TCOON:146:1,2016-02-10T07:30:00Z,28.1324,-97.0345,13.5,1111122 
TCOON,ioos:station:TCOON:146:1,2016-02-10T08:30:00Z,28.1324,-97.0345,13.2,1111122 
TCOON,ioos:station:TCOON:146:1,2016-02-10T10:30:00Z,28.1324,-97.0345,11.9,1111122 
TCOON,ioos:station:TCOON:146:1,2016-02-10T11:30:00Z,28.1324,-97.0345,9.7,1111122 
TCOON,ioos:station:TCOON:146:1,2016-02-10T12:30:00Z,28.1324,-97.0345,9.3,1111122 
TCOON,ioos:station:TCOON:146:1,2016-02-10T13:30:00Z,28.1324,-97.0345,11.4,1111122 
TCOON,ioos:station:TCOON:146:1,2016-02-10T14:30:00Z,28.1324,-97.0345,13.8,1111122 
TCOON,ioos:station:TCOON:146:1,2016-02-10T15:30:00Z,28.1324,-97.0345,13.6,1111122 
TCOON,ioos:station:TCOON:146:1,2016-02-10T16:30:00Z,28.1324,-97.0345,13.8,1111122 
TCOON,ioos:station:TCOON:146:1,2016-02-10T17:30:00Z,28.1324,-97.0345,14.5,1111122 
TCOON,ioos:station:TCOON:146:1,2016-02-10T18:30:00Z,28.1324,-97.0345,15.0,1111122 
TCOON,ioos:station:TCOON:146:1,2016-02-10T19:30:00Z,28.1324,-97.0345,15.7,1111122 
TCOON,ioos:station:TCOON:146:1,2016-02-10T20:30:00Z,28.1324,-97.0345,16.1,1111122 
TCOON,ioos:station:TCOON:146:1,2016-02-10T21:30:00Z,28.1324,-97.0345,16.6,1111122 
TCOON,ioos:station:TCOON:146:1,2016-02-10T22:30:00Z,28.1324,-97.0345,17.3,1111122 
TCOON,ioos:station:TCOON:146:1,2016-02-10T23:30:00Z,28.1324,-97.0345,17.3,1111122 
TCOON,ioos:station:TCOON:146:1,2016-02-11T00:30:00Z,28.1324,-97.0345,16.8,1111122 
TCOON,ioos:station:TCOON:146:1,2016-02-11T01:30:00Z,28.1324,-97.0345,16.4,1111122 
TCOON,ioos:station:TCOON:146:1,2016-02-11T02:30:00Z,28.1324,-97.0345,16.6,1111122 
TCOON,ioos:station:TCOON:146:1,2016-02-11T03:30:00Z,28.1324,-97.0345,16.8,1111122 
TCOON,ioos:station:TCOON:146:1,2016-02-11T04:30:00Z,28.1324,-97.0345,17.0,1111122 
TCOON,ioos:station:TCOON:146:1,2016-02-11T05:30:00Z,28.1324,-97.0345,17.4,1111122 
TCOON,ioos:station:TCOON:146:1,2016-02-11T06:30:00Z,28.1324,-97.0345,17.1,1111122 
TCOON,ioos:station:TCOON:146:1,2016-02-11T07:30:00Z,28.1324,-97.0345,17.1,1111122 
TCOON,ioos:station:TCOON:146:1,2016-02-11T08:30:00Z,28.1324,-97.0345,16.6,1111122 
TCOON,ioos:station:TCOON:146:1,2016-02-11T10:30:00Z,28.1324,-97.0345,16.2,1111122 
TCOON,ioos:station:TCOON:146:1,2016-02-11T11:30:00Z,28.1324,-97.0345,15.8,1111122 
TCOON,ioos:station:TCOON:146:1,2016-02-11T12:30:00Z,28.1324,-97.0345,15.4,1111122 
TCOON,ioos:station:TCOON:146:1,2016-02-11T13:30:00Z,28.1324,-97.0345,15.2,1111122 
TCOON,ioos:station:TCOON:146:1,2016-02-11T14:30:00Z,28.1324,-97.0345,16.3,1111122 
TCOON,ioos:station:TCOON:146:1,2016-02-11T15:30:00Z,28.1324,-97.0345,18.3,1111122 
TCOON,ioos:station:TCOON:146:1,2016-02-11T16:30:00Z,28.1324,-97.0345,19.1,1111122 
TCOON,ioos:station:TCOON:146:1,2016-02-11T17:30:00Z,28.1324,-97.0345,20.0,1111122 
TCOON,ioos:station:TCOON:146:1,2016-02-11T18:30:00Z,28.1324,-97.0345,20.2,1111122 
TCOON,ioos:station:TCOON:146:1,2016-02-11T19:30:00Z,28.1324,-97.0345,19.4,1111122 
TCOON,ioos:station:TCOON:146:1,2016-02-11T20:30:00Z,28.1324,-97.0345,18.9,1111122 
TCOON,ioos:station:TCOON:146:1,2016-02-11T21:30:00Z,28.1324,-97.0345,19.3,1111122 
TCOON,ioos:station:TCOON:146:1,2016-02-11T22:30:00Z,28.1324,-97.0345,19.7,1111122 
TCOON,ioos:station:TCOON:146:1,2016-02-11T23:30:00Z,28.1324,-97.0345,19.3,1111122 
TCOON,ioos:station:TCOON:146:1,2016-02-12T00:30:00Z,28.1324,-97.0345,18.6,1111122 
TCOON,ioos:station:TCOON:146:1,2016-02-12T01:30:00Z,28.1324,-97.0345,18.2,1111122 
TCOON,ioos:station:TCOON:146:1,2016-02-12T02:30:00Z,28.1324,-97.0345,17.9,1111122 
TCOON,ioos:station:TCOON:146:1,2016-02-12T03:30:00Z,28.1324,-97.0345,17.7,1111122 
TCOON,ioos:station:TCOON:146:1,2016-02-12T04:30:00Z,28.1324,-97.0345,17.6,1111122 
TCOON,ioos:station:TCOON:146:1,2016-02-12T05:30:00Z,28.1324,-97.0345,17.4,1111122 
TCOON,ioos:station:TCOON:146:1,2016-02-12T06:30:00Z,28.1324,-97.0345,17.2,1111122 
TCOON,ioos:station:TCOON:146:1,2016-02-12T07:30:00Z,28.1324,-97.0345,16.9,1111122 
TCOON,ioos:station:TCOON:146:1,2016-02-12T08:30:00Z,28.1324,-97.0345,16.8,1111122 
TCOON,ioos:station:TCOON:146:1,2016-02-12T09:30:00Z,28.1324,-97.0345,16.7,1111122 
TCOON,ioos:station:TCOON:146:1,2016-02-12T10:30:00Z,28.1324,-97.0345,16.5,1111122 
TCOON,ioos:station:TCOON:146:1,2016-02-12T11:30:00Z,28.1324,-97.0345,16.4,1111122 
TCOON,ioos:station:TCOON:146:1,2016-02-12T12:30:00Z,28.1324,-97.0345,16.3,1111122 
TCOON,ioos:station:TCOON:146:1,2016-02-12T13:30:00Z,28.1324,-97.0345,16.4,1111122 
TCOON,ioos:station:TCOON:146:1,2016-02-12T14:30:00Z,28.1324,-97.0345,17.3,1111122 
TCOON,ioos:station:TCOON:146:1,2016-02-12T15:30:00Z,28.1324,-97.0345,18.2,1111122 
TCOON,ioos:station:TCOON:146:1,2016-02-12T16:30:00Z,28.1324,-97.0345,19.5,1111122 
TCOON,ioos:station:TCOON:146:1,2016-02-12T17:30:00Z,28.1324,-97.0345,19.3,1111122 
TCOON,ioos:station:TCOON:146:1,2016-02-12T18:30:00Z,28.1324,-97.0345,19.3,1111122 
TCOON,ioos:station:TCOON:146:1,2016-02-12T19:30:00Z,28.1324,-97.0345,19.6,1111122 
TCOON,ioos:station:TCOON:146:1,2016-02-12T20:30:00Z,28.1324,-97.0345,19.9,1111122 
TCOON,ioos:station:TCOON:146:1,2016-02-12T21:30:00Z,28.1324,-97.0345,20.1,1111122 
TCOON,ioos:station:TCOON:146:1,2016-02-12T22:30:00Z,28.1324,-97.0345,20.1,1111122 
TCOON,ioos:station:TCOON:146:1,2016-02-12T23:30:00Z,28.1324,-97.0345,19.8,1111122 
TCOON,ioos:station:TCOON:146:1,2016-02-13T00:30:00Z,28.1324,-97.0345,18.9,1111122 
TCOON,ioos:station:TCOON:146:1,2016-02-13T01:30:00Z,28.1324,-97.0345,18.3,1111122 
TCOON,ioos:station:TCOON:146:1,2016-02-13T02:30:00Z,28.1324,-97.0345,18.2,1111122 
TCOON,ioos:station:TCOON:146:1,2016-02-13T03:30:00Z,28.1324,-97.0345,18.0,1111122 
TCOON,ioos:station:TCOON:146:1,2016-02-13T04:30:00Z,28.1324,-97.0345,17.9,1111122 
TCOON,ioos:station:TCOON:146:1,2016-02-13T05:30:00Z,28.1324,-97.0345,17.8,1111122 
TCOON,ioos:station:TCOON:146:1,2016-02-13T06:30:00Z,28.1324,-97.0345,17.8,1111122 
TCOON,ioos:station:TCOON:146:1,2016-02-13T07:30:00Z,28.1324,-97.0345,17.6,1111122 
TCOON,ioos:station:TCOON:146:1,2016-02-13T08:30:00Z,28.1324,-97.0345,17.7,1111122 
TCOON,ioos:station:TCOON:146:1,2016-02-13T09:30:00Z,28.1324,-97.0345,17.6,1111122 
TCOON,ioos:station:TCOON:146:1,2016-02-13T10:30:00Z,28.1324,-97.0345,17.4,1111122 
TCOON,ioos:station:TCOON:146:1,2016-02-13T11:30:00Z,28.1324,-97.0345,17.3,1111122 
TCOON,ioos:station:TCOON:146:1,2016-02-13T12:30:00Z,28.1324,-97.0345,15.9,1111122 
TCOON,ioos:station:TCOON:146:1,2016-02-13T13:30:00Z,28.1324,-97.0345,17.0,1111122 
TCOON,ioos:station:TCOON:146:1,2016-02-13T14:30:00Z,28.1324,-97.0345,15.5,1111122 
TCOON,ioos:station:TCOON:146:1,2016-02-13T15:30:00Z,28.1324,-97.0345,16.7,1111122 
TCOON,ioos:station:TCOON:146:1,2016-02-13T16:30:00Z,28.1324,-97.0345,19.5,1111122 
TCOON,ioos:station:TCOON:146:1,2016-02-13T17:30:00Z,28.1324,-97.0345,19.9,1111122 
TCOON,ioos:station:TCOON:146:1,2016-02-13T18:30:00Z,28.1324,-97.0345,19.8,1111122 
TCOON,ioos:station:TCOON:146:1,2016-02-13T19:30:00Z,28.1324,-97.0345,19.9,1111122 
TCOON,ioos:station:TCOON:146:1,2016-02-13T20:30:00Z,28.1324,-97.0345,19.8,1111122 
TCOON,ioos:station:TCOON:146:1,2016-02-13T21:30:00Z,28.1324,-97.0345,19.9,1111122 
TCOON,ioos:station:TCOON:146:1,2016-02-13T22:30:00Z,28.1324,-97.0345,20.0,1111122 
TCOON,ioos:station:TCOON:146:1,2016-02-13T23:30:00Z,28.1324,-97.0345,19.8,1111122 
TCOON,ioos:station:TCOON:146:1,2016-02-14T00:30:00Z,28.1324,-97.0345,19.4,1111122 
TCOON,ioos:station:TCOON:146:1,2016-02-14T01:30:00Z,28.1324,-97.0345,19.0,1111122 
TCOON,ioos:station:TCOON:146:1,2016-02-14T02:30:00Z,28.1324,-97.0345,19.0,1111122 
TCOON,ioos:station:TCOON:146:1,2016-02-14T03:30:00Z,28.1324,-97.0345,19.0,1111122 
TCOON,ioos:station:TCOON:146:1,2016-02-14T04:30:00Z,28.1324,-97.0345,18.9,1111122 
TCOON,ioos:station:TCOON:146:1,2016-02-14T05:30:00Z,28.1324,-97.0345,18.6,1111122 
TCOON,ioos:station:TCOON:146:1,2016-02-14T06:30:00Z,28.1324,-97.0345,18.5,1111122 
TCOON,ioos:station:TCOON:146:1,2016-02-14T07:30:00Z,28.1324,-97.0345,18.4,1111122 
TCOON,ioos:station:TCOON:146:1,2016-02-14T08:30:00Z,28.1324,-97.0345,18.4,1111122 
TCOON,ioos:station:TCOON:146:1,2016-02-14T09:30:00Z,28.1324,-97.0345,18.4,1111122 
TCOON,ioos:station:TCOON:146:1,2016-02-14T10:30:00Z,28.1324,-97.0345,18.7,1111122 
TCOON,ioos:station:TCOON:146:1,2016-02-14T11:30:00Z,28.1324,-97.0345,18.9,1111122 
TCOON,ioos:station:TCOON:146:1,2016-02-14T12:30:00Z,28.1324,-97.0345,18.6,1111122 
TCOON,ioos:station:TCOON:146:1,2016-02-14T13:30:00Z,28.1324,-97.0345,18.5,1111122 
TCOON,ioos:station:TCOON:146:1,2016-02-14T14:30:00Z,28.1324,-97.0345,19.2,1111122 
TCOON,ioos:station:TCOON:146:1,2016-02-14T15:30:00Z,28.1324,-97.0345,19.8,1111122 
TCOON,ioos:station:TCOON:146:1,2016-02-14T16:30:00Z,28.1324,-97.0345,20.8,1111122 
TCOON,ioos:station:TCOON:146:1,2016-02-14T17:30:00Z,28.1324,-97.0345,21.6,1111122 
TCOON,ioos:station:TCOON:146:1,2016-02-14T18:30:00Z,28.1324,-97.0345,21.4,1111122 
TCOON,ioos:station:TCOON:146:1,2016-02-14T19:30:00Z,28.1324,-97.0345,20.9,1111122 
TCOON,ioos:station:TCOON:146:1,2016-02-14T20:30:00Z,28.1324,-97.0345,20.6,1111122 
TCOON,ioos:station:TCOON:146:1,2016-02-14T21:30:00Z,28.1324,-97.0345,20.7,1111122 
TCOON,ioos:station:TCOON:146:1,2016-02-14T22:30:00Z,28.1324,-97.0345,20.3,1111122 
TCOON,ioos:station:TCOON:146:1,2016-02-14T23:30:00Z,28.1324,-97.0345,20.0,1111122 
TCOON,ioos:station:TCOON:146:1,2016-02-15T00:30:00Z,28.1324,-97.0345,19.8,1111122 
TCOON,ioos:station:TCOON:146:1,2016-02-15T01:30:00Z,28.1324,-97.0345,19.9,1111122 
TCOON,ioos:station:TCOON:146:1,2016-02-15T02:30:00Z,28.1324,-97.0345,19.8,1111122 
TCOON,ioos:station:TCOON:146:1,2016-02-15T03:30:00Z,28.1324,-97.0345,19.6,1111122 
TCOON,ioos:station:TCOON:146:1,2016-02-15T04:30:00Z,28.1324,-97.0345,19.5,1111122 
TCOON,ioos:station:TCOON:146:1,2016-02-15T05:30:00Z,28.1324,-97.0345,19.4,1111122 
TCOON,ioos:station:TCOON:146:1,2016-02-15T06:30:00Z,28.1324,-97.0345,19.1,1111122 
TCOON,ioos:station:TCOON:146:1,2016-02-15T07:30:00Z,28.1324,-97.0345,19.1,1111122 
TCOON,ioos:station:TCOON:146:1,2016-02-15T08:30:00Z,28.1324,-97.0345,19.2,1111122 
TCOON,ioos:station:TCOON:146:1,2016-02-15T09:30:00Z,28.1324,-97.0345,19.0,1111122 
TCOON,ioos:station:TCOON:146:1,2016-02-15T10:30:00Z,28.1324,-97.0345,18.8,1111122 
TCOON,ioos:station:TCOON:146:1,2016-02-15T11:30:00Z,28.1324,-97.0345,18.7,1111122 
TCOON,ioos:station:TCOON:146:1,2016-02-15T12:30:00Z,28.1324,-97.0345,18.9,1111122 
TCOON,ioos:station:TCOON:146:1,2016-02-15T13:30:00Z,28.1324,-97.0345,19.1,1111122 
TCOON,ioos:station:TCOON:146:1,2016-02-15T14:30:00Z,28.1324,-97.0345,19.4,1111122 
TCOON,ioos:station:TCOON:146:1,2016-02-15T15:30:00Z,28.1324,-97.0345,19.6,1111122 
TCOON,ioos:station:TCOON:146:1,2016-02-15T16:30:00Z,28.1324,-97.0345,20.1,1111122 
TCOON,ioos:station:TCOON:146:1,2016-02-15T17:30:00Z,28.1324,-97.0345,20.2,1111122 
TCOON,ioos:station:TCOON:146:1,2016-02-15T18:30:00Z,28.1324,-97.0345,21.1,1111122 
TCOON,ioos:station:TCOON:146:1,2016-02-15T19:30:00Z,28.1324,-97.0345,22.6,1111122 
TCOON,ioos:station:TCOON:146:1,2016-02-15T20:30:00Z,28.1324,-97.0345,23.8,1111122 
TCOON,ioos:station:TCOON:146:1,2016-02-15T21:30:00Z,28.1324,-97.0345,24.0,1111122 
TCOON,ioos:station:TCOON:146:1,2016-02-15T22:30:00Z,28.1324,-97.0345,24.0,1111122 
TCOON,ioos:station:TCOON:146:1,2016-02-15T23:30:00Z,28.1324,-97.0345,24.2,1111122 
TCOON,ioos:station:TCOON:146:1,2016-02-16T00:30:00Z,28.1324,-97.0345,21.5,1111122 
TCOON,ioos:station:TCOON:146:1,2016-02-16T01:30:00Z,28.1324,-97.0345,21.5,1111122 
TCOON,ioos:station:TCOON:146:1,2016-02-16T02:30:00Z,28.1324,-97.0345,20.7,1111122 
TCOON,ioos:station:TCOON:146:1,2016-02-16T03:30:00Z,28.1324,-97.0345,20.0,1111122 
TCOON,ioos:station:TCOON:146:1,2016-02-16T04:30:00Z,28.1324,-97.0345,19.4,1111122 
TCOON,ioos:station:TCOON:146:1,2016-02-16T05:30:00Z,28.1324,-97.0345,17.9,1111122 
TCOON,ioos:station:TCOON:146:1,2016-02-16T06:30:00Z,28.1324,-97.0345,17.9,1111122 
TCOON,ioos:station:TCOON:146:1,2016-02-16T07:30:00Z,28.1324,-97.0345,17.2,1111122 
TCOON,ioos:station:TCOON:146:1,2016-02-16T08:30:00Z,28.1324,-97.0345,16.5,1111122 
TCOON,ioos:station:TCOON:146:1,2016-02-16T09:30:00Z,28.1324,-97.0345,15.6,1111122 
TCOON,ioos:station:TCOON:146:1,2016-02-16T10:30:00Z,28.1324,-97.0345,15.6,1111122 
TCOON,ioos:station:TCOON:146:1,2016-02-16T11:30:00Z,28.1324,-97.0345,17.3,1111122 
TCOON,ioos:station:TCOON:146:1,2016-02-16T12:30:00Z,28.1324,-97.0345,18.4,1111122 
TCOON,ioos:station:TCOON:146:1,2016-02-16T13:30:00Z,28.1324,-97.0345,18.8,1111122 
TCOON,ioos:station:TCOON:146:1,2016-02-16T14:30:00Z,28.1324,-97.0345,19.1,1111122 
TCOON,ioos:station:TCOON:146:1,2016-02-16T15:30:00Z,28.1324,-97.0345,19.7,1111122 
TCOON,ioos:station:TCOON:146:1,2016-02-16T16:30:00Z,28.1324,-97.0345,19.9,1111122 
TCOON,ioos:station:TCOON:146:1,2016-02-16T17:30:00Z,28.1324,-97.0345,20.5,1111122 
TCOON,ioos:station:TCOON:146:1,2016-02-16T18:30:00Z,28.1324,-97.0345,20.6,1111122 
TCOON,ioos:station:TCOON:146:1,2016-02-16T19:30:00Z,28.1324,-97.0345,20.6,1111122 
TCOON,ioos:station:TCOON:146:1,2016-02-16T20:30:00Z,28.1324,-97.0345,20.7,1111122 
TCOON,ioos:station:TCOON:146:1,2016-02-16T21:30:00Z,28.1324,-97.0345,21.0,1111122 
TCOON,ioos:station:TCOON:146:1,2016-02-16T22:30:00Z,28.1324,-97.0345,21.4,1111122 
TCOON,ioos:station:TCOON:146:1,2016-02-16T23:30:00Z,28.1324,-97.0345,21.1,1111122 
TCOON,ioos:station:TCOON:146:1,2016-02-17T00:30:00Z,28.1324,-97.0345,20.6,1111122 
TCOON,ioos:station:TCOON:146:1,2016-02-17T01:30:00Z,28.1324,-97.0345,20.2,1111122 
TCOON,ioos:station:TCOON:146:1,2016-02-17T02:30:00Z,28.1324,-97.0345,20.0,1111122 
TCOON,ioos:station:TCOON:146:1,2016-02-17T03:30:00Z,28.1324,-97.0345,19.8,1111122 
TCOON,ioos:station:TCOON:146:1,2016-02-17T04:30:00Z,28.1324,-97.0345,19.7,1111122 
TCOON,ioos:station:TCOON:146:1,2016-02-17T05:30:00Z,28.1324,-97.0345,19.6,1111122 
TCOON,ioos:station:TCOON:146:1,2016-02-17T06:30:00Z,28.1324,-97.0345,19.3,1111122 
TCOON,ioos:station:TCOON:146:1,2016-02-17T07:30:00Z,28.1324,-97.0345,18.9,1111122 
TCOON,ioos:station:TCOON:146:1,2016-02-17T08:30:00Z,28.1324,-97.0345,19.2,1111122 
TCOON,ioos:station:TCOON:146:1,2016-02-17T09:30:00Z,28.1324,-97.0345,16.0,1111122 
TCOON,ioos:station:TCOON:146:1,2016-02-17T10:30:00Z,28.1324,-97.0345,16.7,1111122 
TCOON,ioos:station:TCOON:146:1,2016-02-17T11:30:00Z,28.1324,-97.0345,16.9,1111122 
TCOON,ioos:station:TCOON:146:1,2016-02-17T12:30:00Z,28.1324,-97.0345,16.8,1111122 
TCOON,ioos:station:TCOON:146:1,2016-02-17T13:30:00Z,28.1324,-97.0345,15.0,1111122 
TCOON,ioos:station:TCOON:146:1,2016-02-17T14:30:00Z,28.1324,-97.0345,17.2,1111122 
TCOON,ioos:station:TCOON:146:1,2016-02-17T15:30:00Z,28.1324,-97.0345,18.5,1111122 
TCOON,ioos:station:TCOON:146:1,2016-02-17T16:30:00Z,28.1324,-97.0345,19.8,1111122 
TCOON,ioos:station:TCOON:146:1,2016-02-17T17:30:00Z,28.1324,-97.0345,19.7,1111122 
TCOON,ioos:station:TCOON:146:1,2016-02-17T18:30:00Z,28.1324,-97.0345,19.5,1111122 
TCOON,ioos:station:TCOON:146:1,2016-02-17T19:30:00Z,28.1324,-97.0345,19.3,1111122 
TCOON,ioos:station:TCOON:146:1,2016-02-17T20:30:00Z,28.1324,-97.0345,19.3,1111122 
TCOON,ioos:station:TCOON:146:1,2016-02-17T21:30:00Z,28.1324,-97.0345,19.3,1111122 
TCOON,ioos:station:TCOON:146:1,2016-02-17T22:30:00Z,28.1324,-97.0345,19.0,1111122 
TCOON,ioos:station:TCOON:146:1,2016-02-17T23:30:00Z,28.1324,-97.0345,18.8,1111122 
TCOON,ioos:station:TCOON:146:1,2016-02-18T00:30:00Z,28.1324,-97.0345,18.3,1111122 
TCOON,ioos:station:TCOON:146:1,2016-02-18T01:30:00Z,28.1324,-97.0345,18.2,1111122 
TCOON,ioos:station:TCOON:146:1,2016-02-18T02:30:00Z,28.1324,-97.0345,18.4,1111122 
TCOON,ioos:station:TCOON:146:1,2016-02-18T03:30:00Z,28.1324,-97.0345,18.5,1111122 
TCOON,ioos:station:TCOON:146:1,2016-02-18T04:30:00Z,28.1324,-97.0345,18.5,1111122 
TCOON,ioos:station:TCOON:146:1,2016-02-18T05:30:00Z,28.1324,-97.0345,18.5,1111122 
TCOON,ioos:station:TCOON:146:1,2016-02-18T06:30:00Z,28.1324,-97.0345,18.7,1111122 
TCOON,ioos:station:TCOON:146:1,2016-02-18T07:30:00Z,28.1324,-97.0345,18.8,1111122 
TCOON,ioos:station:TCOON:146:1,2016-02-18T08:30:00Z,28.1324,-97.0345,18.7,1111122 
TCOON,ioos:station:TCOON:146:1,2016-02-18T09:30:00Z,28.1324,-97.0345,18.6,1111122 
TCOON,ioos:station:TCOON:146:1,2016-02-18T10:30:00Z,28.1324,-97.0345,18.6,1111122 
TCOON,ioos:station:TCOON:146:1,2016-02-18T11:30:00Z,28.1324,-97.0345,18.7,1111122 
TCOON,ioos:station:TCOON:146:1,2016-02-18T12:30:00Z,28.1324,-97.0345,18.6,1111122 
TCOON,ioos:station:TCOON:146:1,2016-02-18T13:30:00Z,28.1324,-97.0345,18.6,1111122 
TCOON,ioos:station:TCOON:146:1,2016-02-18T14:30:00Z,28.1324,-97.0345,18.9,1111122 
TCOON,ioos:station:TCOON:146:1,2016-02-18T15:30:00Z,28.1324,-97.0345,19.3,1111122 
TCOON,ioos:station:TCOON:146:1,2016-02-18T16:30:00Z,28.1324,-97.0345,20.0,1111122 
TCOON,ioos:station:TCOON:146:1,2016-02-18T17:30:00Z,28.1324,-97.0345,20.4,1111122 